Location: Escondido Hill
(38.9119°N, 104.7815°W)
Time: 09:48:46
(UTC-07:00)

Tiangong 2 - Visible Passes

Search period start: 17 January 2019 00:00
Search period end: 27 January 2019 00:00
Orbit: 380 x 392 km, 42.8° (Epoch: 17 January)

Date Brightness Start Highest point End Pass type
(mag) Time Alt. Az. Time Alt. Az. Time Alt. Az.
17 Jan 2.2 05:17:51 44° ESE 05:17:51 44° ESE 05:20:27 10° ENE visible
18 Jan 1.1 05:54:11 40° W 05:55:06 62° NNW 05:58:17 10° ENE visible
19 Jan 3.7 04:58:07 20° ENE 04:58:07 20° ENE 04:59:16 10° ENE visible
19 Jan 1.8 06:30:22 12° WNW 06:33:03 39° N 06:36:06 10° ENE visible
20 Jan 1.7 05:34:13 44° N 05:34:13 44° N 05:37:02 10° ENE visible
21 Jan 4.6 04:38:00 10° ENE 04:38:00 10° ENE 04:38:01 10° ENE visible
21 Jan 1.9 06:10:14 21° NW 06:11:56 38° N 06:14:57 10° ENE visible
22 Jan 2.9 05:13:59 27° NE 05:13:59 27° NE 05:15:50 10° ENE visible
23 Jan 1.8 05:49:56 34° NW 05:50:47 43° N 05:53:50 10° E visible
24 Jan 3.9 04:53:39 18° ENE 04:53:39 18° ENE 04:54:40 10° ENE visible
24 Jan 1.1 06:25:53 13° WNW 06:28:39 81° NNE 06:31:50 10° ESE visible
25 Jan 1.4 05:29:36 55° NNE 05:29:36 55° NNE 05:32:42 10° E visible
26 Jan 4.7 04:33:21 11° E 04:33:21 11° E 04:33:30 10° E visible
26 Jan 1.3 06:05:36 24° W 06:07:19 60° SSW 06:10:28 10° SE visible
